Location: Unspecified
(17.6330°N, 0.0000°E)
Time: 19:13:18
(UTC+00:00)

Tiros 1 despin weight - Visible Passes

Search period start: 07 August 2020 00:00
Search period end: 17 August 2020 00:00
Orbit: 594 x 642 km, 48.2° (Epoch: 07 August)

Date Brightness Start Highest point End Pass type
(mag) Time Alt. Az. Time Alt. Az. Time Alt. Az.
08 Aug ? 04:22:03 10° SSE 04:24:45 15° SE 04:27:25 10° E visible
09 Aug ? 04:37:06 12° SSW 04:41:05 39° SE 04:45:18 10° ENE visible
10 Aug ? 04:53:31 14° SW 04:57:28 80° NW 05:02:00 10° NE visible
11 Aug ? 03:32:46 23° SE 03:32:46 23° SE 03:36:10 10° ENE visible
11 Aug ? 05:09:51 10° WSW 05:13:57 32° NW 05:18:01 10° NNE visible
12 Aug ? 03:49:03 58° ESE 03:49:03 58° ESE 03:53:25 10° NE visible
13 Aug ? 04:05:14 54° NW 04:05:21 54° NW 04:09:49 10° NNE visible
14 Aug ? 02:44:16 11° ENE 02:44:16 11° ENE 02:44:33 10° ENE visible
14 Aug ? 04:21:20 22° NW 04:21:55 23° NW 04:25:33 10° N visible
15 Aug ? 03:00:17 17° NE 03:00:17 17° NE 03:01:23 10° NE visible
15 Aug ? 04:37:43 10° NW 04:38:39 11° NW 04:39:36 10° NNW visible
16 Aug ? 03:16:15 17° NNE 03:16:15 17° NNE 03:17:31 10° NNE visible
